Location: Bottenau
(48.5138°N, 8.0462°E)
Time: 21:03:59
(UTC+00:00)

NOSS 3-1 (C) - Pass Details

Date: 18 April 2021
Orbit: 732 x 1476 km, 63.4° (Epoch: 18 April)

Event Time Altitude Azimuth Distance (km) Brightness Sun altitude
Rises 22:17:23 0° 318° (NW) 3,904 7.7 -28.4°
Reaches altitude 10° 22:19:53 10° 316° (NW) 3,044 6.9 -28.5°
Maximum altitude 22:27:18 76° 234° (SW) 1,333 4.0 -28.9°
Enters shadow 22:28:43 63° 173° (S) 1,455 4.0 -28.9°
